Regional Weather Roundup
Issued by NWS Goodland, KS

Home | Current Version | Previous Version | Graphics & Text | Print | Product List | Glossary On
Versions: 1 2 3 4 5 6 7 8 9 10 11 12 13 14 15 16 17 18 19 20 21 22 23 24 25 26 27 28 29 30 31 32 33 34 35 36 37 38 39 40 41 42 43 44 45 46 47 48 49 50
000
ASUS43 KGLD 282308
RWRGLD

GOODLAND FORECAST AREA HOURLY WEATHER ROUNDUP
NATIONAL WEATHER SERVICE GOODLAND KS
500 PM MDT FRI APR 28 2017

...OFFICIAL OBSERVATIONS...

CITY           SKY/WX    TMP DP  RH WIND       PRES   REMARKS
GOODLAND KS    CLOUDY    37  36  96 NE18      29.85R
HILL CITY KS   CLOUDY    42  39  89 NE15      29.87R
IMPERIAL NEB   CLOUDY    38  33  82 NE18G25   29.92R
MCCOOK NEB     CLOUDY    39  35  86 NE23      29.91R
AKRON CO       LGT RAIN  34  32  92 E17       29.85R FOG
BURLINGTON CO  NOT AVBL
LIMON CO       CLOUDY    39  35  86 NE26G35   29.75R
$$

...UNOFFICIAL OBSERVATIONS...

CITY           SKY/WX    TMP DP  RH WIND       PRES   REMARKS
LENORA KS        N/A     39  32  76 MISG        N/A
NORTON KS      CLOUDY    37  34  87 NE15G23   29.88R
SHARON SPRINGS   N/A     43  38  83 NE14G26     N/A
TRENTON NEB      N/A     37  32  82 NE12        N/A
KIT CARSON CO    N/A     43  37  79 MISG        N/A
YUMA CO        CLOUDY    34  32  93 NE20      29.87R
$$




USA.gov is the U.S. government's official web portal to all federal, state and local government web resources and services.